Tracking 31030 objects as of 15-Jul-2025
HD Live streaming from Space Station
objects crossing your sky now

FENGYUN 1C DEB

Track FENGYUN 1C DEB now!
10-day predictions


NORAD ID: 31767
Int'l Code: 1999-025CFS
Perigee: 853.7 km
Apogee: 914.7 km
Inclination: 98.8 °
Period: 102.5 minutes
Semi major axis: 7255 km
RCS: 0.0074 m2 (small)
Launch date: May 10, 1999
Source: People's Republic of China (PRC)
Launch site: Taiyaun Space Center, China (TSC)

Note: This is SATELLITE DEBRIS
Your satellite tracking list
Your tracking list is empty




NASA's NSSDC Master Catalog

Two Line Element Set (TLE):
1 31767U 99025CFS 25195.07942329 -.00000043  00000-0 -61535-7 0  9993
2 31767  98.8388 228.8048 0042017 132.9141 285.9105 14.04850680926965
Source of the keplerian elements: AFSPC